Moses Lake, WA

4:50 PM PST on January 17, 2018 (GMT -0800)
Grant County International

Weather History for KMWH - April, 2012

Change the Weather History Date:

Tuesday, April 10, 2012

  Actual Average Record
Temperature  
Mean Temperature 55 °F 49 °F  
Max Temperature 69 °F 62 °F 78 °F (1985)
Min Temperature 41 °F 36 °F 28 °F (1999)
Degree Days  
Heating Degree Days 10 16  
Month to date heating degree days 193 170  
Since 1 July heating degree days 5334 5342  
Cooling Degree Days 0 0  
Month to date cooling degree days 0 0  
Year to date cooling degree days 0 0  
Growing Degree Days 6 (Base 50)    
Moisture  
Dew Point 35 °F    
Average Humidity 51    
Maximum Humidity 76    
Minimum Humidity 26    
Precipitation  
Precipitation 0.00 in 0.03 in 0.33 in (1998)
Month to date precipitation 0.16 0.25  
Year to date precipitation 2.09 2.97  
Sea Level Pressure  
Sea Level Pressure 29.76 in    
Wind  
Wind Speed 5 mph (NNE)    
Max Wind Speed 15 mph    
Max Gust Speed 18 mph    
Visibility 10 miles    
Events      
T = Trace of Precipitation, MM = Missing Value Source: NWS Daily Summary

Daily Weather History Graph

Daily Weather History Graph

Search for Another Location

Airport or City:

Trip Planner

Search our weather history database for the weather conditions in past years. The results will help you decide how hot, cold, wet, or windy it might be!

Date:

Astronomy

Apr. 10, 2012 Rise Set
Actual Time 6:17 AM PDT 7:40 PM PDT
Civil Twilight 5:45 AM PDT 8:11 PM PDT
Nautical Twilight 5:07 AM PDT 8:50 PM PDT
Astronomical Twilight 4:26 AM PDT 9:31 PM PDT
Moon No Moon Rise 8:50 AM PDT (4/10)
Length of Visible Light 14h 26m
Length of Day
13h 22m
Waning Gibbous, 78% of the Moon is Illuminated
Apr 10
Waning Gibbous
Apr 13
Last Quarter
Apr 21
New
Apr 29
First Quarter
May 5
Full

Hourly Weather History & Observations

Time (PDT) Temp. Windchill Dew Point Humidity Pressure Visibility Wind Dir Wind Speed Gust Speed Precip Events Conditions
12:52 AM 46.0 °F 42.5 °F 39.0 °F 76% 29.86 in 10.0 mi North 6.9 mph - N/A   Clear
1:52 AM 44.1 °F 39.5 °F 37.0 °F 76% 29.84 in 10.0 mi North 8.1 mph - N/A   Clear
2:52 AM 48.0 °F - 36.0 °F 63% 29.81 in 10.0 mi North 12.7 mph - N/A   Clear
3:52 AM 45.0 °F 40.1 °F 34.0 °F 65% 29.81 in 10.0 mi North 9.2 mph - N/A   Clear
4:52 AM 42.1 °F 36.6 °F 34.0 °F 73% 29.79 in 10.0 mi North 9.2 mph - N/A   Clear
5:52 AM 46.9 °F - 34.0 °F 61% 29.77 in 10.0 mi NNE 10.4 mph - N/A   Clear
6:52 AM 46.9 °F - 33.1 °F 59% 29.78 in 10.0 mi North 9.2 mph - N/A   Clear
7:52 AM 51.1 °F - 35.1 °F 54% 29.78 in 10.0 mi NE 5.8 mph - N/A   Clear
8:52 AM 52.0 °F - 33.1 °F 49% 29.80 in 10.0 mi Calm Calm - N/A   Clear
9:52 AM 55.9 °F - 33.1 °F 42% 29.79 in 10.0 mi North 4.6 mph - N/A   Clear
10:52 AM 60.1 °F - 32.0 °F 35% 29.78 in 10.0 mi NNE 3.5 mph - N/A   Clear
11:52 AM 62.1 °F - 34.0 °F 35% 29.77 in 10.0 mi Calm Calm - N/A   Clear
12:52 PM 63.0 °F - 34.0 °F 34% 29.76 in 10.0 mi South 3.5 mph - N/A   Clear
1:52 PM 64.0 °F - 35.1 °F 34% 29.75 in 10.0 mi SSW 4.6 mph - N/A   Clear
2:52 PM 64.9 °F - 35.1 °F 33% 29.75 in 10.0 mi Calm Calm - N/A   Clear
3:52 PM 66.9 °F - 35.1 °F 31% 29.74 in 10.0 mi Variable 3.5 mph - N/A   Clear
4:52 PM 69.1 °F - 34.0 °F 27% 29.74 in 10.0 mi Variable 3.5 mph - N/A   Clear
5:52 PM 68.0 °F - 34.0 °F 28% 29.73 in 10.0 mi SE 3.5 mph - N/A   Clear
6:52 PM 66.0 °F - 33.1 °F 29% 29.72 in 10.0 mi SE 4.6 mph - N/A   Clear
7:52 PM 63.0 °F - 34.0 °F 34% 29.71 in 10.0 mi SE 4.6 mph - N/A   Clear
8:52 PM 62.1 °F - 33.1 °F 34% 29.73 in 10.0 mi Calm Calm - N/A   Clear
9:52 PM 57.2 °F - 35.6 °F 44% 29.71 in 10.0 mi Calm Calm - N/A   Clear
10:52 PM 51.1 °F - 37.0 °F 59% 29.72 in 10.0 mi NNW 3.5 mph - N/A   Clear
11:52 PM 48.9 °F - 37.0 °F 64% 29.69 in 10.0 mi North 4.6 mph - N/A   Clear